Tracking 20092 objects as of 14-Dec-2019
HD Live streaming from Space Station
objects crossing your sky now

COSMOS 2251 DEB


COSMOS 2251 DEB is no longer on orbit


NORAD ID: 36452
Int'l Code: 1993-036BBB
Perigee: N/A
Apogee: N/A
Inclination: N/A
Period: N/A
Semi major axis: N/A
RCS: N/A
Launch date: June 16, 1993
Source: Commonwealth of Independent States (former USSR) (CIS)
Launch site: PLESETSK MISSILE AND SPACE COMPLEX (PKMTR)
Decay date: 2014-10-27

Note: This is SATELLITE DEBRIS
aabbcc
Your satellite tracking list
Your tracking list is empty




NASA's NSSDC Master Catalog

Two Line Element Set (TLE):
1 36452U 93036BBB 14059.70621027  .00068663  00000-0  10929-1 0  9996
2 36452 073.9789 191.2948 0019294 269.1083 090.7813 14.71480932235280
Source of the keplerian elements: AFSPC